Torna al catalogo

TDRS 5

AttivoComunicazioniGEO
NORAD 21639·PAYLOAD·🇺🇸 United States

Lanciato Aug 2, 1991 da Cape Canaveral Space Force Station

Loading…

TLE

AggiornatoSource: Space-Track

Epoca: Sep 14, 2026, 12:31 UTC

1 21639U 91054B   26257.52196488  .00000080  00000-0  00000-0 0  9993
2 21639  14.0609 353.1076 0009254 251.7068 129.1813  1.00280658128610

Traccia TDRS 5 in tempo reale con AllMySat

Download on the App Store